Regional Weather Roundup
Issued by NWS Sterling, VA

Home | Current Version | Previous Version | Text Only | Print | Product List | Glossary On
Versions: 1 2 3 4 5 6 7 8 9 10 11 12 13 14 15 16 17 18 19 20 21 22 23 24 25 26 27 28 29 30 31 32 33 34 35 36 37 38 39 40 41 42 43 44 45 46 47 48 49 50
000
ASUS41 KLWX 211710
RWRLWX

REGIONAL WEATHER ROUNDUP
NATIONAL WEATHER SERVICE BALTIMORE MD/WASHINGTON DC
1200 PM EST SUN DEC 21 2014

Note: "FAIR" indicates few or no clouds below 12,000 feet
with no significant weather and/or obstructions to visibility.
 TC=TEMPERATURE CELSIUS

 * =Non NWS site. Station does not report precipitation (e.g. rain,
    snow, etc.), thunder, or fog.

DCZ001-MDZ009-015-VAZ040>042-051-053>054-211800-
WASHINGTON METRO

CITY           SKY/WX    TMP DP  RH WIND       PRES   REMARKS
WASHINGTON NAT PTSUNNY   42  24  49 NE3       30.36F
DULLES         CLOUDY    37  23  56 CALM      30.34F
ANDREWS AFB    CLOUDY    38  23  55 VRB5      30.33F
FT BELVOIR     CLOUDY    40  23  51 W2        30.35F
QUANTICO       CLOUDY    39  24  55 E3        30.36F
COLLEGE PARK*  CLOUDY    37  25  60 CALM      30.35F
LEESBURG*      CLOUDY    37  28  70 MISG      30.35F
GAITHERSBURG*  CLOUDY    36  21  55 NW5       30.36F

$$

MDZ006>007-011-014-211800-
BALTIMORE METRO

CITY           SKY/WX    TMP DP  RH WIND       PRES   REMARKS
BWI AIRPORT    PTSUNNY   37  22  54 W6        30.33F
MD SCIENCE CTR   N/A     39  23  52 MISG      30.35F
MARTIN STATE   MOSUNNY   41  27  56 NW7       30.35F
ANNAPOLIS      CLOUDY    37  23  56 NW5       30.34F
FORT MEADE*    CLOUDY    36  23  60 W3        30.36F

$$

MDZ012-015-019>023-211800-
MARYLAND EASTERN SHORE

CITY           SKY/WX    TMP DP  RH WIND       PRES   REMARKS
OCEAN CITY     CLOUDY    40  25  55 N7        30.33F
SALISBURY      CLOUDY    42  25  50 NW7       30.33F
BAY BRIDGE AP*   N/A     36  23  60 NW6       30.35F
CAMBRIDGE*     MOSUNNY   37  28  70 NW5       30.33F
EASTON*        CLOUDY    39  27  60 N5        30.37F

$$

MDZ017>025-211800-
SOUTHERN MARYLAND

CITY           SKY/WX    TMP DP  RH WIND       PRES   REMARKS
PATUXENT RIVER PTSUNNY   39  28  64 CALM      30.34F
ST INIGOES     CLOUDY    41  27  57 CALM      30.34F
LEONARDTOWN*   CLOUDY    37  27  65 NW5       30.35F

$$

MDZ003>005-211800-
NORTH CENTRAL MARYLAND

CITY           SKY/WX    TMP DP  RH WIND       PRES   REMARKS
FREDERICK*     CLOUDY    37  21  52 VRB3      30.37F
HAGERSTOWN APT CLOUDY    35  22  58 CALM      30.32F
WESTMINSTER*   SUNNY     36  21  55 N6        30.30F

$$

MDZ501>502-211800-
WESTERN MARYLAND

CITY           SKY/WX    TMP DP  RH WIND       PRES   REMARKS
OAKLAND*       MOSUNNY   30  28  93 CALM      30.19F
CUMBERLAND*    SUNNY     37  27  65 E3        30.34F

$$

VAZ025>031-211800-
SHENANDOAH VALLEY

CITY           SKY/WX    TMP DP  RH WIND       PRES   REMARKS
WINCHESTER*    CLOUDY    36  21  55 CALM      30.32F
FRONT ROYAL*   CLOUDY    36  25  64 CALM      30.31F
LURAY*         CLOUDY    41  28  60 NE6       30.29F
NEW MARKET*    PTSUNNY   38  26  61 CALM      30.29F
STAUNTON*      SUNNY     38  26  61 CALM      30.30F
WAYNESBORO*    CLOUDY    37  27  67 CALM      30.27F

$$

WVZ021-048>050-054>055-211800-
EASTERN WEST VIRGINIA PANHANDLE

CITY           SKY/WX    TMP DP  RH WIND       PRES   REMARKS
MARTINSBURG    CLOUDY    38  22  52 CALM      30.32F
PETERSBURG*    MOSUNNY   37  24  58 CALM      30.30F

$$

VAZ036>039-050-211800-
CENTRAL FOOTHILLS

CITY           SKY/WX    TMP DP  RH WIND       PRES   REMARKS
CHARLOTTESVILL CLOUDY    39  26  59 CALM      30.31F
CULPEPER*      PTSUNNY   41  27  56 CALM      30.34F
ORANGE*        CLOUDY    39  28  65 CALM      30.34F
GORDONSVILLE*  CLOUDY    38  26  61 CALM      30.32F
WARRENTON*     CLOUDY    40  31  69 CALM      30.34F

$$

VAZ055>057-211800-
NORTH AND CENTRAL PIEDMONT

CITY           SKY/WX    TMP DP  RH WIND       PRES   REMARKS
FREDERICKSBRG* CLOUDY    40  27  59 CALM      30.34F
STAFFORD*      PTSUNNY   39  24  55 CALM      30.38F

$$

NCZ024-NYZ072-PAZ021-071-VAZ022-071-211800-
OTHER REGIONAL OBSERVATIONS

CITY           SKY/WX    TMP DP  RH WIND       PRES   REMARKS
NEW YORK CITY  CLOUDY    33  25  72 VRB5      30.32F
PHILADELPHIA   MOSUNNY   39  21  48 VRB7      30.33F
PITTSBURGH     CLOUDY    31  21  66 CALM      30.29F
ROANOKE        CLOUDY    42  29  59 SE6       30.28F
RICHMOND       CLOUDY    42  25  50 VRB5      30.34F
RALEIGH        CLOUDY    44  35  70 E3        30.30F

$$

ANZ530>537-211800-
MARINE OBSERVATIONS

STATION/POSITION TIME  TEMP    WIND        PRES
                       AIR SEA DIR/SP/G
                 (UTC) (F)     (DEG/KT/KT) (MB)
THOMAS PT LIGHT  1700   36 40  360/  3/  4 1028.6F
BALT KEY BRIDGE  1700   36     270/  4/  5 1027.4F
COVE POINT       1700   36     350/  6/  8 1027.4F
LEWISETTA        1700   38 41  340/  3/  4 1027.2F
SOLOMONS ISLAND  1700      42                N/A

$$



USA.gov is the U.S. government's official web portal to all federal, state and local government web resources and services.